Weather History for KNTU - February, 2013

Change the Weather History Date:

Monday, February 18, 2013

  Actual Average Record
Temperature  
Mean Temperature 32 °F -  
Max Temperature 44 °F 50 °F 75 °F (2011)
Min Temperature 21 °F 33 °F 21 °F (2013)
Degree Days  
Heating Degree Days 32    
Moisture  
Dew Point 14 °F    
Average Humidity 46    
Maximum Humidity 68    
Minimum Humidity 24    
Precipitation  
Precipitation 0.00 in - - ()
Sea Level Pressure  
Sea Level Pressure 30.34 in    
Wind  
Wind Speed 10 mph (WSW)    
Max Wind Speed 14 mph    
Max Gust Speed 23 mph    
Visibility 10 miles    
Events      
Averages and records for this station are not official NWS values.
T = Trace of Precipitation, MM = Missing Value Source: NWS Daily Summary

Daily Weather History Graph

Daily Weather History Graph

Search for Another Location

Airport or City:

Trip Planner

Search our weather history database for the weather conditions in past years. The results will help you decide how hot, cold, wet, or windy it might be!

Date:

Astronomy

Feb. 18, 2013 Rise Set
Actual Time 6:48 AM EST 5:47 PM EST
Civil Twilight 6:22 AM EST 6:14 PM EST
Nautical Twilight 5:52 AM EST 6:44 PM EST
Astronomical Twilight 5:22 AM EST 7:14 PM EST
Moon 11:36 AM EST (2/18) 1:22 AM EST (2/18)
Length of Visible Light 11h 51m
Length of Day
10h 59m
First Quarter, 58% of the Moon is Illuminated
Feb 18
First Quarter
Feb 25
Full
Mar 4
Last Quarter
Mar 11
New
Mar 19
First Quarter

Hourly Weather History & Observations

Time (EST) Temp. Windchill Dew Point Humidity Pressure Visibility Wind Dir Wind Speed Gust Speed Precip Events Conditions
12:56 AM 27.0 °F 15.6 °F 6.1 °F 41% 30.25 in 10.0 mi NW 13.8 mph - N/A   Clear
1:56 AM 27.0 °F 16.1 °F 5.0 °F 39% 30.28 in 10.0 mi WNW 12.7 mph 23.0 mph N/A   Clear
2:56 AM 27.0 °F 15.6 °F 6.1 °F 41% 30.30 in 10.0 mi NW 13.8 mph - N/A   Clear
3:56 AM 27.0 °F 15.6 °F 8.1 °F 45% 30.30 in 10.0 mi NW 13.8 mph - N/A   Clear
4:56 AM 25.0 °F 15.5 °F 9.0 °F 51% 30.33 in 10.0 mi WNW 9.2 mph - N/A   Clear
5:56 AM 23.0 °F 15.8 °F 10.9 °F 60% 30.35 in 10.0 mi WSW 5.8 mph - N/A   Clear
6:56 AM 21.0 °F 14.6 °F 12.0 °F 68% 30.37 in 10.0 mi West 4.6 mph - N/A   Clear
7:56 AM 26.1 °F 20.5 °F 15.1 °F 63% 30.40 in 10.0 mi SW 4.6 mph - N/A   Clear
8:56 AM 32.0 °F 22.5 °F 10.9 °F 42% 30.41 in 10.0 mi NW 12.7 mph 19.6 mph N/A   Clear
9:56 AM 34.0 °F 24.6 °F 10.0 °F 37% 30.42 in 10.0 mi NNW 13.8 mph - N/A   Clear
10:56 AM 37.0 °F 29.3 °F 12.0 °F 36% 30.42 in 10.0 mi NNW 11.5 mph - N/A   Partly Cloudy
11:56 AM 39.0 °F 34.0 °F 9.0 °F 29% 30.40 in 10.0 mi NNW 6.9 mph - N/A   Scattered Clouds
12:00 PM - - - N/A% - - North - - N/A   Unknown
12:56 PM 39.9 °F 35.8 °F 9.0 °F 28% 30.37 in 10.0 mi Variable 5.8 mph - N/A   Partly Cloudy
1:56 PM 42.1 °F 36.1 °F 10.0 °F 27% 30.35 in 10.0 mi WSW 10.4 mph - N/A   Clear
2:56 PM 44.1 °F 40.8 °F 9.0 °F 24% 30.34 in 10.0 mi Variable 5.8 mph - N/A   Scattered Clouds
3:56 PM 39.9 °F 33.4 °F 19.0 °F 43% 30.33 in 10.0 mi ESE 10.4 mph - N/A   Scattered Clouds
4:56 PM 39.0 °F 34.0 °F 21.0 °F 49% 30.31 in 10.0 mi SE 6.9 mph - N/A   Scattered Clouds
5:56 PM 39.0 °F 32.8 °F 21.0 °F 49% 30.32 in 10.0 mi SSE 9.2 mph - N/A   Scattered Clouds
6:56 PM 37.0 °F 31.6 °F 21.9 °F 54% 30.33 in 10.0 mi SSE 6.9 mph - N/A   Scattered Clouds
7:56 PM 37.0 °F 33.3 °F 19.0 °F 48% 30.33 in 10.0 mi South 4.6 mph - N/A   Scattered Clouds
8:56 PM 37.0 °F 32.4 °F 18.0 °F 46% 30.32 in 10.0 mi South 5.8 mph - N/A   Mostly Cloudy
9:56 PM 37.0 °F 31.6 °F 24.1 °F 59% 30.32 in 10.0 mi South 6.9 mph - N/A   Mostly Cloudy
10:56 PM 37.0 °F 30.4 °F 24.1 °F 59% 30.30 in 10.0 mi South 9.2 mph - N/A   Scattered Clouds
11:56 PM 37.0 °F 30.4 °F 25.0 °F 62% 30.29 in 10.0 mi SSW 9.2 mph - N/A   Scattered Clouds